Rochester/St. Mary\'s Hospita, MN

9:27 PM CDT on September 21, 2018 (GMT -0500)
Rochester/St. Mary\'s Hospita

Weather History for K9MN - October, 2017

Change the Weather History Date:

Friday, October 6, 2017

  Actual Average (KRST) Record (KRST)
Temperature  
Mean Temperature 54 °F -  
Max Temperature 56 °F 59 °F 89 °F (1997)
Min Temperature 52 °F 38 °F 14 °F (1935)
Degree Days  
Heating Degree Days 12    
Growing Degree Days 4 (Base 50)    
Moisture  
Dew Point 54 °F    
Average Humidity 100    
Maximum Humidity 100    
Minimum Humidity 100    
Precipitation  
Precipitation 0.97 in - - ()
Sea Level Pressure  
Sea Level Pressure 29.89 in    
Wind  
Wind Speed 5 mph (ENE)    
Max Wind Speed 12 mph    
Max Gust Speed 22 mph    
Visibility 8 miles    
Events      
Averages and records for this station are not official NWS values.
T = Trace of Precipitation, MM = Missing Value Source: NWS Daily Summary

Daily Weather History Graph

Daily Weather History Graph

Search for Another Location

Airport or City:

Astronomy

Oct. 06, 2017 Rise Set
Actual Time 7:13 AM CDT 6:41 PM CDT
Civil Twilight 6:45 AM CDT 7:10 PM CDT
Nautical Twilight 6:11 AM CDT 7:43 PM CDT
Astronomical Twilight 5:37 AM CDT 8:16 PM CDT
Moon 7:39 PM CDT (10/6) 8:00 AM CDT (10/6)
Length of Visible Light 12h 24m
Length of Day
11h 27m
Full, 99% of the Moon is Illuminated
Oct 6
Full
Oct 12
Last Quarter
Oct 19
New
Oct 27
First Quarter
Nov 4
Full

Hourly Weather History & Observations

Time (CDT) Temp. Dew Point Humidity Pressure Visibility Wind Dir Wind Speed Gust Speed Precip Events Conditions
12:12 AM 52.0 °F 52.2 °F 100% 30.07 in 4.0 mi ESE 5.8 mph - N/A   Overcast
12:32 AM 52.0 °F 52.2 °F 100% 30.07 in 5.0 mi ESE 4.6 mph - N/A   Overcast
12:52 AM 52.0 °F 52.2 °F 100% 30.07 in 7.0 mi ESE 4.6 mph - N/A   Overcast
1:12 AM 52.0 °F 52.2 °F 100% 30.07 in 7.0 mi ESE 5.8 mph - N/A   Overcast
1:31 AM 52.2 °F 52.3 °F 100% 30.07 in 4.0 mi ESE 5.8 mph - N/A   Overcast
1:52 AM 52.2 °F 52.3 °F 100% 30.07 in 3.0 mi ESE 3.5 mph - 0.01 in   Overcast
2:12 AM 52.3 °F 52.5 °F 100% 30.07 in 4.0 mi ESE 4.6 mph - N/A   Overcast
2:32 AM 52.7 °F 52.9 °F 100% 30.06 in 5.0 mi Calm Calm - N/A   Overcast
2:52 AM 52.9 °F 53.1 °F 100% 30.05 in 10.0 mi ESE 4.6 mph - N/A   Overcast
3:12 AM 52.7 °F 52.7 °F 100% 30.05 in 7.0 mi ESE 5.8 mph - N/A   Overcast
3:31 AM 52.7 °F 52.7 °F 100% 30.05 in 7.0 mi ESE 4.6 mph - N/A   Overcast
3:52 AM 52.7 °F 52.9 °F 100% 30.04 in 7.0 mi Calm Calm - N/A   Overcast
4:12 AM 53.1 °F 53.2 °F 100% 30.04 in 10.0 mi Calm Calm - N/A   Overcast
4:31 AM 53.6 °F 53.6 °F 100% 30.03 in 10.0 mi ENE 5.8 mph - N/A   Overcast
4:52 AM 53.4 °F 53.6 °F 100% 30.04 in 10.0 mi Calm Calm - N/A   Overcast
5:12 AM 53.1 °F 53.2 °F 100% 30.04 in 10.0 mi SE 3.5 mph - N/A   Overcast
5:32 AM 53.2 °F 53.2 °F 100% 30.04 in 10.0 mi Calm Calm - N/A   Overcast
5:52 AM 53.6 °F 53.6 °F 100% 30.03 in 10.0 mi ESE 3.5 mph - N/A   Overcast
6:12 AM 53.2 °F 53.2 °F 100% 30.02 in 10.0 mi ESE 5.8 mph - N/A   Overcast
6:31 AM 53.2 °F 53.2 °F 100% 30.02 in 10.0 mi ESE 5.8 mph - N/A   Overcast
6:52 AM 53.4 °F 53.6 °F 100% 30.02 in 10.0 mi ENE 4.6 mph - N/A   Overcast
7:12 AM 53.6 °F 53.6 °F 100% 30.02 in 10.0 mi NNE 3.5 mph - N/A   Overcast
7:32 AM 53.6 °F 53.6 °F 100% 30.02 in 10.0 mi Calm Calm - N/A   Overcast
7:52 AM 53.6 °F 53.8 °F 100% 30.03 in 10.0 mi NE 4.6 mph - N/A   Overcast
8:12 AM 53.6 °F 53.8 °F 100% 30.02 in 10.0 mi NNE 3.5 mph - N/A   Overcast
8:32 AM 53.8 °F 54.0 °F 100% 30.02 in 10.0 mi NE 5.8 mph - N/A   Overcast
8:52 AM 53.6 °F 53.8 °F 100% 30.01 in 10.0 mi NE 3.5 mph - N/A   Overcast
9:12 AM 53.8 °F 54.0 °F 100% 30.00 in 10.0 mi ENE 5.8 mph - N/A   Overcast
9:32 AM - - N/A% 30.01 in 5.0 mi East 4.6 mph - N/A   Overcast
9:52 AM 54.0 °F 54.1 °F 100% 30.01 in 5.0 mi Calm Calm - N/A   Overcast
10:12 AM 54.5 °F 54.5 °F 100% 30.01 in 7.0 mi East 3.5 mph - N/A   Overcast
10:32 AM 54.5 °F 54.5 °F 100% 29.99 in 10.0 mi ENE 5.8 mph - N/A   Overcast
10:52 AM 55.0 °F 55.2 °F 100% 29.99 in 10.0 mi NE 4.6 mph - N/A   Overcast
11:12 AM 55.4 °F 55.6 °F 100% 29.98 in 10.0 mi NE 5.8 mph - N/A   Overcast
11:32 AM 55.4 °F 55.4 °F 100% 29.97 in 10.0 mi NE 4.6 mph - N/A   Overcast
11:52 AM 55.4 °F 55.6 °F 100% 29.95 in 4.0 mi ENE 8.1 mph - N/A   Overcast
12:12 PM 55.2 °F 55.4 °F 100% 29.94 in 4.0 mi NE 5.8 mph - N/A   Overcast
12:32 PM 55.4 °F 55.4 °F 100% 29.93 in 5.0 mi ENE 6.9 mph - N/A   Overcast
12:52 PM 55.6 °F 55.8 °F 100% 29.91 in 5.0 mi ENE 5.8 mph - 0.01 in   Overcast
1:12 PM 55.8 °F 55.9 °F 100% 29.90 in 2.5 mi ENE 6.9 mph - N/A   Overcast
1:32 PM 55.6 °F 55.8 °F 100% 29.89 in 3.0 mi East 4.6 mph - 0.01 in   Overcast
1:52 PM 55.2 °F 55.4 °F 100% 29.87 in 7.0 mi ENE 8.1 mph - 0.01 in   Overcast
2:12 PM 55.2 °F 55.4 °F 100% 29.85 in 7.0 mi NE 5.8 mph - N/A   Overcast
2:32 PM 55.4 °F 55.6 °F 100% 29.84 in 7.0 mi East 6.9 mph - N/A   Overcast
2:52 PM 55.8 °F 55.9 °F 100% 29.83 in 7.0 mi East 5.8 mph - N/A   Overcast
3:12 PM - - N/A% 29.81 in 7.0 mi ENE 8.1 mph - N/A   Overcast
3:32 PM - - N/A% 29.80 in 10.0 mi NE 4.6 mph - N/A   Overcast
3:51 PM - - N/A% 29.81 in 7.0 mi NNE 4.6 mph - 0.01 in   Overcast
4:12 PM - - N/A% 29.83 in 1.5 mi NW 6.9 mph - 0.14 in   Overcast
4:32 PM 55.4 °F 55.6 °F 100% 29.83 in 2.0 mi NNW 5.8 mph - 0.35 in   Overcast
4:52 PM 55.0 °F 55.4 °F 100% 29.81 in 2.5 mi North 6.9 mph - 0.50 in   Overcast
5:12 PM 54.7 °F 54.9 °F 100% 29.80 in 2.5 mi NNE 8.1 mph - 0.09 in   Overcast
5:32 PM 54.5 °F 54.7 °F 100% 29.78 in 4.0 mi NNE 6.9 mph - 0.20 in   Overcast
5:52 PM 54.5 °F 54.5 °F 100% 29.75 in 2.5 mi NE 9.2 mph 16.1 mph 0.35 in   Overcast
6:12 PM 54.5 °F 54.5 °F 100% 29.71 in 5.0 mi ENE 11.5 mph 21.9 mph 0.04 in   Overcast
6:32 PM 54.5 °F 54.7 °F 100% 29.70 in 10.0 mi NE 8.1 mph 16.1 mph 0.05 in   Overcast
6:52 PM 54.9 °F 55.0 °F 100% 29.68 in 10.0 mi NE 6.9 mph - 0.06 in   Overcast
7:12 PM 54.9 °F 55.0 °F 100% 29.68 in 10.0 mi NE 6.9 mph - N/A   Overcast
7:32 PM 55.0 °F 55.4 °F 100% 29.68 in 10.0 mi NNE 6.9 mph - N/A   Overcast
7:52 PM 55.0 °F 55.2 °F 100% 29.68 in 10.0 mi NE 8.1 mph - N/A   Overcast
8:12 PM 55.0 °F 55.4 °F 100% 29.67 in 10.0 mi NNE 4.6 mph - N/A   Overcast
8:31 PM 55.0 °F 55.4 °F 100% 29.68 in 10.0 mi NE 5.8 mph - N/A   Overcast
8:52 PM 55.4 °F 55.4 °F 100% 29.67 in 10.0 mi NNE 5.8 mph - N/A   Overcast
9:12 PM 55.4 °F 55.4 °F 100% 29.66 in 10.0 mi NNE 6.9 mph - N/A   Overcast
9:31 PM 55.0 °F 55.4 °F 100% 29.66 in 10.0 mi NNE 6.9 mph - N/A   Overcast
9:52 PM 55.4 °F 55.4 °F 100% 29.65 in 10.0 mi NE 5.8 mph - N/A   Overcast
10:12 PM 55.4 °F 55.4 °F 100% 29.64 in 10.0 mi NE 6.9 mph - N/A   Overcast
10:31 PM 55.4 °F 55.4 °F 100% 29.64 in 10.0 mi NNE 4.6 mph - N/A   Overcast
10:52 PM 55.4 °F 55.4 °F 100% 29.63 in 10.0 mi NNE 5.8 mph - N/A   Overcast
11:12 PM 55.4 °F 55.6 °F 100% 29.63 in 7.0 mi NE 3.5 mph - N/A   Overcast
11:31 PM 55.4 °F 55.6 °F 100% 29.63 in 4.0 mi ENE 3.5 mph - N/A   Overcast
11:52 PM 55.6 °F 55.8 °F 100% 29.63 in 4.0 mi NE 3.5 mph - 0.02 in   Overcast